Regional Weather Roundup
Issued by NWS

Home | Current Version | Previous Version | Graphics & Text | Print | Product List | Glossary On
Versions: 1 2 3 4 5 6 7 8 9 10 11 12 13 14 15 16 17 18 19 20 21 22 23 24 25 26 27 28 29 30 31 32 33 34 35 36 37 38 39 40 41 42 43 44 45 46 47 48 49 50
000
ASUS44 KMEG 211810
RWRTN
TENNESSEE HOURLY STATE WEATHER ROUNDUP
NATIONAL WEATHER SERVICE MEMPHIS TN
1200 PM CST SAT JAN 21 2017

TNZ002-004-019-021-049-052-054-088>092-211900-
WEST TENNESSEE

CITY           SKY/WX    TMP DP  RH WIND       PRES   REMARKS
MEMPHIS INTL   MOSUNNY   71  53  52 S16       29.63F
NWS MEMPHIS      N/A     71 N/A N/A MISG        N/A
JACKSON        SUNNY     71  52  50 VRB7      29.65F
DYERSBURG      SUNNY     68  50  52 S12       29.64F
UNION CITY     SUNNY     68  46  45 S10       29.63F
PARIS          PTSUNNY   64  52  63 CALM      29.66F
HUNTINGDON     PTSUNNY   68  52  56 S10       29.66F
$$

TNZ008-025-027-028-033-062-065-066-211900-
NORTH MIDDLE TENNESSEE

CITY           SKY/WX    TMP DP  RH WIND       PRES   REMARKS
NASHVILLE      PTSUNNY   66  48  52 S14       29.70F
PORTLAND       CLOUDY    63  54  72 SW6       29.69F
CLARKSVILLE    MOSUNNY   67  53  61 S6        29.66F
SMYRNA         CLOUDY    64  53  67 S9        29.70F
GALLATIN       MOSUNNY   66  48  52 S8G16     29.72F
CROSSVILLE     PTSUNNY   53  50  89 VRB6      29.69F
$$

TNZ061-075-076-078-094-096-097-211900-
SOUTH MIDDLE TENNESSEE

CITY           SKY/WX    TMP DP  RH WIND       PRES   REMARKS
TULLAHOMA      SUNNY     61  52  72 CALM      29.69F
WINCHESTER     SUNNY     59  52  77 SE9       29.66F
MCMINNVILLE    SUNNY     59  54  82 E5        29.68F
COLUMBIA       SUNNY     64  59  82 S6        29.67F
SHELBYVILLE    SUNNY     63  54  72 VRB5      29.69F
$$

TNZ017-018-042-046-047-211900-
NORTHEAST TENNESSEE

CITY           SKY/WX    TMP DP  RH WIND       PRES   REMARKS
TRI CITIES     CLOUDY    54  49  83 CALM      29.79F
ELIZABETHTON   CLOUDY    55  48  76 NE5       29.79F
$$

TNZ012-013-036-069-073-074-211900-
CENTRAL EAST TENNESSEE

CITY           SKY/WX    TMP DP  RH WIND       PRES   REMARKS
KNOXVILLE      LGT RAIN  53  51  93 S7        29.80F FOG
OAK RIDGE      LGT RAIN  55  52  89 CALM      29.81F FOG
GATLINBURG     CLOUDY    52  48  87 CALM      29.78F
MORRISTOWN     SUNNY     55  52  88 NE5       29.77F
JACKSBORO      CLOUDY    52  52 100 CALM      29.80F FOG
$$

TNZ083-085-099-211900-
SOUTHEAST TENNESSEE

CITY           SKY/WX    TMP DP  RH WIND       PRES   REMARKS
CHATTANOOGA    CLOUDY    58  53  84 N10       29.69F
$$

SKY/WX REPORTED AS FAIR MEANS FEW OR NO CLOUDS BELOW
12 THOUSAND FEET.





USA.gov is the U.S. government's official web portal to all federal, state and local government web resources and services.